Amarillo, TX (79111)

11:25 PM CDT on July 30, 2015 (GMT -0500)
Amarillo International | | Change Station
CLOSE
Current Station
Airport
Location: Amarillo,
Elevation: 3606 ft
Nearby Weather Stations
Active Advisory: Flash Flood Watch

Elev 3606 ft 35.22 °N, 101.72 °W | Updated 32 minutes ago

Clear
Clear
74 °F
Feels Like 74 °F
N
6
Wind Variable Wind from SSW

Today
High -- | Low -- °F
--% Chance of Precip.
Yesterday
High -- | Low -- °F
Precip. -- in
6:54 AM 8:51 PM
Full, 100% visible
Pressure 30.11 in
Visibility 10.0 miles
Clouds Clear
Dew Point 67 °F
Humidity 79%
Rainfall 0.00 in
Snow Depth Not available.
UV 0 out of 12
Pollen 4.30 out of 12
Air Quality Not available.
Flu Activity Not available.
METAR KAMA 310353Z 20005KT 10SM CLR 23/19 A3026 RMK AO2 SLP195 T02330194

More Conditions Fewer Conditions

Pressure 30.11 in
Visibility 10.0 miles
Clouds Clear
Dew Point 67 °F
Humidity 79%
Rainfall 0.00 in
Snow Depth Not available.
UV 0 out of 12
Pollen 4.30 out of 12
Air Quality Not available.
Flu Activity Not available.
METAR KAMA 310353Z 20005KT 10SM CLR 23/19 A3026 RMK AO2 SLP195 T02330194

More Conditions Fewer Conditions

10-Day Weather Forecast

×

Almanac

Astronomy

Jul. 30, 2015 Rise Set
Actual Time
Civil Twilight
Nautical Twilight
Astronomical Twilight
Moon
Length of Visible Light
Length of Day
Tomorrow will be .
, % of the Moon is Illuminated

Today's Extremes

State Highs State Lows

Community

WunderPhotos

Upload Photos

1,842,608 photos uploaded!

WunderBlogs® & News

Nearby

Air Quality

  Air Quality AQ Index Pollutant
Not available.

Snow Depth

Station Depth Elevation

Earthquake Activity

City Distance Mag. Time & Date
Minimum magnitude displayed is 2.5.

Coastal Water Temperatures

Place Temperature

Stations

Nearby Weather Stations

Station Location Temp. Windchill Dew Point Humidity Wind Precip. Elev Updated Type
                   
Flash Flood Watch
Statement as of 1:19 PM CDT on July 30, 2015

... Flash Flood Watch in effect through Friday morning...

The National Weather Service in Amarillo has issued a

* Flash Flood Watch for portions of Oklahoma and Texas...
including the following areas... in Oklahoma... Cimarron. In
Texas... Dallam... Deaf Smith... Hartley... Moore... Oldham...
Potter... Randall and Sherman.

* Through Friday morning

* thunderstorms with heavy rain will be possible across the western
panhandles through Friday morning. The runoff from the heavy rain
may cause areas of flash flooding.

* Flash flooding could impact travel. Fast flowing water can sweep
vehicles from roadways.

Precautionary/preparedness actions...

A Flash Flood Watch means that conditions may develop that lead
to flash flooding. Flash flooding is a very dangerous situation.

You should monitor later forecasts and be prepared to take action
should flash flood warnings be issued.